TKJ5DA UGTB-LTFJ

Flight info

Callsign TKJ5DA
Flight time N/A
Altitude 36000
Route ZAGOT DCT NOLGA UN61 TBN UW71 CRM DCT DEREL UT79 NAMAN
Aircraft A21N/M-SDE3FGHIRWY/LB1

Departure

Time 2026-04-30 00:40
Airport Tbilisi International Airport (UGTB)

Arrival

Time N/A
Airport Istanbul Sabiha Gökçen International Airport (LTFJ)
Time Latitude Longitude Altitude Speed Heading
2026-04-30 00:27 41.66892 44.96330 1571 ft 0 kts 43°
2026-04-30 00:33 41.66891 44.96328 1571 ft 1 kts 44°
2026-04-30 00:34 41.66879 44.96316 1570 ft 2 kts 39°
2026-04-30 00:34 41.66869 44.96302 1569 ft 2 kts 45°
2026-04-30 00:34 41.66857 44.96289 1567 ft 2 kts 42°
2026-04-30 00:34 41.66846 44.96275 1566 ft 2 kts 50°
2026-04-30 00:35 41.66842 44.96256 1565 ft 2 kts 95°
2026-04-30 00:35 41.66846 44.96238 1565 ft 0 kts 129°
2026-04-30 00:35 41.66850 44.96232 1565 ft 1 kts 137°
2026-04-30 00:35 41.66853 44.96229 1565 ft 0 kts 134°
2026-04-30 00:37 41.66842 44.96244 1565 ft 6 kts 132°
2026-04-30 00:37 41.66785 44.96326 1565 ft 17 kts 133°
2026-04-30 00:38 41.66703 44.96425 1562 ft 15 kts 166°
2026-04-30 00:38 41.66580 44.96395 1553 ft 20 kts 193°
2026-04-30 00:38 41.66427 44.96344 1544 ft 21 kts 194°
2026-04-30 00:38 41.66282 44.96299 1534 ft 22 kts 186°
2026-04-30 00:39 41.66128 44.96362 1526 ft 24 kts 139°
2026-04-30 00:39 41.66001 44.96524 1518 ft 20 kts 137°
2026-04-30 00:39 41.65883 44.96590 1505 ft 22 kts 209°
2026-04-30 00:39 41.65877 44.96426 1509 ft 18 kts 311°
2026-04-30 00:40 41.66053 44.96203 1521 ft 69 kts 317°
2026-04-30 00:40 41.66582 44.95531 1535 ft 140 kts 316°
2026-04-30 00:40 41.67368 44.94524 1990 ft 162 kts 316°
2026-04-30 00:40 41.68187 44.93474 2753 ft 168 kts 317°
2026-04-30 00:41 41.69048 44.92427 3536 ft 170 kts 318°
2026-04-30 00:41 41.69951 44.91336 3955 ft 182 kts 318°
2026-04-30 00:41 41.70927 44.90144 4327 ft 198 kts 317°
2026-04-30 00:41 41.71978 44.88846 4683 ft 216 kts 317°
2026-04-30 00:42 41.73135 44.87410 5006 ft 237 kts 317°
2026-04-30 00:42 41.74386 44.85853 5450 ft 255 kts 317°
2026-04-30 00:42 41.75712 44.84200 6031 ft 266 kts 317°
2026-04-30 00:42 41.77063 44.82492 6815 ft 268 kts 313°
2026-04-30 00:43 41.77990 44.80394 7562 ft 270 kts 284°
2026-04-30 00:43 41.78102 44.77908 8431 ft 269 kts 270°
2026-04-30 00:43 41.78062 44.75404 9216 ft 269 kts 270°
2026-04-30 00:43 41.78043 44.72933 9963 ft 270 kts 270°
2026-04-30 00:44 41.78042 44.70400 10585 ft 276 kts 271°
2026-04-30 00:44 41.78052 44.67742 10912 ft 292 kts 271°
2026-04-30 00:44 41.78073 44.64954 11212 ft 309 kts 271°
2026-04-30 00:44 41.78098 44.62024 11542 ft 322 kts 271°
2026-04-30 00:45 41.78116 44.60000 11911 ft 327 kts 271°
2026-04-30 00:45 41.78120 44.59566 12003 ft 327 kts 271°
2026-04-30 00:45 41.78149 44.56513 12662 ft 329 kts 271°
2026-04-30 00:45 41.78162 44.55160 12943 ft 331 kts 271°
2026-04-30 00:46 41.78191 44.52159 13540 ft 333 kts 271°
2026-04-30 00:46 41.78211 44.49994 13962 ft 335 kts 271°
2026-04-30 00:47 41.78232 44.47686 14405 ft 337 kts 271°
2026-04-30 00:47 41.78260 44.44511 14998 ft 340 kts 271°
2026-04-30 00:47 41.78287 44.41339 15571 ft 343 kts 271°
2026-04-30 00:48 41.78315 44.38161 16122 ft 345 kts 271°
2026-04-30 00:48 41.78342 44.34942 16638 ft 349 kts 270°
2026-04-30 00:48 41.78369 44.31676 17161 ft 351 kts 270°
2026-04-30 00:48 41.78394 44.28401 17693 ft 354 kts 270°
2026-04-30 00:49 41.78418 44.25118 18177 ft 357 kts 270°
2026-04-30 00:49 41.78441 44.21812 18661 ft 360 kts 270°
2026-04-30 00:49 41.78464 44.18438 19175 ft 362 kts 270°
2026-04-30 00:49 41.78315 44.15105 19661 ft 364 kts 263°
2026-04-30 00:50 41.77798 44.11755 20142 ft 367 kts 255°
2026-04-30 00:50 41.76959 44.08540 20602 ft 369 kts 250°
2026-04-30 00:50 41.75994 44.05316 21035 ft 372 kts 250°
2026-04-30 00:50 41.75024 44.02132 21478 ft 374 kts 250°
2026-04-30 00:51 41.74043 43.98918 21933 ft 375 kts 250°
2026-04-30 00:51 41.73047 43.95646 22390 ft 377 kts 250°
2026-04-30 00:51 41.72054 43.92393 22823 ft 378 kts 250°
2026-04-30 00:51 41.71061 43.89135 23224 ft 380 kts 250°
2026-04-30 00:52 41.70054 43.85829 23644 ft 382 kts 250°
2026-04-30 00:52 41.69051 43.82543 24019 ft 384 kts 250°
2026-04-30 00:52 41.68041 43.79234 24375 ft 386 kts 250°
2026-04-30 00:52 41.67019 43.75894 24764 ft 388 kts 250°
2026-04-30 00:53 41.66007 43.72590 25136 ft 389 kts 250°
2026-04-30 00:53 41.64976 43.69230 25474 ft 391 kts 250°
2026-04-30 00:53 41.63952 43.65890 25804 ft 393 kts 250°
2026-04-30 00:53 41.62912 43.62503 26130 ft 395 kts 250°
2026-04-30 00:54 41.61870 43.59120 26479 ft 395 kts 250°
2026-04-30 00:54 41.60809 43.55679 26776 ft 398 kts 250°
2026-04-30 00:54 41.59758 43.52271 27052 ft 400 kts 250°
2026-04-30 00:54 41.58697 43.48841 27330 ft 402 kts 250°
2026-04-30 00:55 41.57626 43.45376 27637 ft 403 kts 250°
2026-04-30 00:55 41.56565 43.41953 27927 ft 404 kts 250°
2026-04-30 00:55 41.54393 43.34953 28472 ft 408 kts 250°
2026-04-30 00:56 41.53301 43.31445 28761 ft 409 kts 250°
2026-04-30 00:56 41.52209 43.27932 29034 ft 411 kts 250°
2026-04-30 00:56 41.51124 43.24450 29292 ft 412 kts 250°
2026-04-30 00:56 41.50016 43.20902 29666 ft 412 kts 250°
2026-04-30 00:57 41.48922 43.17402 30073 ft 410 kts 251°
2026-04-30 00:57 41.47839 43.13947 30470 ft 408 kts 251°
2026-04-30 00:57 41.46735 43.10426 30848 ft 407 kts 251°
2026-04-30 00:57 41.45657 43.06987 31214 ft 405 kts 251°
2026-04-30 00:58 41.44606 43.03508 31582 ft 403 kts 252°
2026-04-30 00:58 41.43685 42.99990 31929 ft 400 kts 255°
2026-04-30 00:58 41.42907 42.96446 32235 ft 399 kts 258°
2026-04-30 00:58 41.42271 42.92903 32520 ft 398 kts 260°
2026-04-30 00:59 41.41765 42.89294 32856 ft 397 kts 263°
2026-04-30 00:59 41.41318 42.85650 33184 ft 396 kts 262°
2026-04-30 00:59 41.40877 42.82040 33478 ft 395 kts 263°
2026-04-30 00:59 41.40438 42.78465 33764 ft 395 kts 262°
2026-04-30 01:00 41.39999 42.74892 34072 ft 394 kts 262°
2026-04-30 01:00 41.39555 42.71284 34366 ft 393 kts 263°
2026-04-30 01:00 41.39113 42.67697 34595 ft 394 kts 263°
2026-04-30 01:00 41.38671 42.64107 34779 ft 395 kts 262°
2026-04-30 01:01 41.38229 42.60540 34907 ft 396 kts 262°
2026-04-30 01:01 41.37779 42.56907 35033 ft 398 kts 262°
2026-04-30 01:01 41.37324 42.53251 35190 ft 398 kts 262°
2026-04-30 01:01 41.36876 42.49656 35300 ft 399 kts 262°
2026-04-30 01:02 41.35959 42.42325 35514 ft 402 kts 262°
2026-04-30 01:02 41.35030 42.34942 35722 ft 403 kts 261°
2026-04-30 01:03 41.34568 42.31286 35838 ft 404 kts 261°
2026-04-30 01:03 41.34101 42.27597 35969 ft 404 kts 261°
2026-04-30 01:03 41.33632 42.23913 36085 ft 406 kts 261°
2026-04-30 01:03 41.33158 42.20189 36127 ft 408 kts 262°
2026-04-30 01:04 41.32209 42.12773 36140 ft 408 kts 262°
2026-04-30 01:04 41.31259 42.05383 36139 ft 407 kts 262°
2026-04-30 01:05 41.30299 41.97969 36141 ft 408 kts 262°
2026-04-30 01:05 41.29332 41.90555 36150 ft 407 kts 262°
2026-04-30 01:06 41.28354 41.83147 36152 ft 407 kts 262°
2026-04-30 01:06 41.27372 41.75743 36153 ft 406 kts 262°
2026-04-30 01:07 41.26391 41.68377 36162 ft 406 kts 262°
2026-04-30 01:07 41.25409 41.61046 36148 ft 406 kts 262°
2026-04-30 01:08 41.24417 41.53677 36144 ft 405 kts 262°
2026-04-30 01:08 41.23421 41.46312 36142 ft 405 kts 262°
2026-04-30 01:09 41.22417 41.38927 36146 ft 405 kts 262°
2026-04-30 01:09 41.21412 41.31580 36145 ft 406 kts 261°
2026-04-30 01:10 41.20402 41.24223 36159 ft 405 kts 261°
2026-04-30 01:10 41.19396 41.16923 36172 ft 405 kts 261°
2026-04-30 01:11 41.18375 41.09551 36163 ft 405 kts 261°
2026-04-30 01:11 41.17353 41.02219 36168 ft 405 kts 261°
2026-04-30 01:12 41.16329 40.94907 36170 ft 404 kts 262°
2026-04-30 01:12 41.15305 40.87623 36175 ft 404 kts 262°
2026-04-30 01:13 41.14271 40.80318 36168 ft 404 kts 262°
2026-04-30 01:13 41.13240 40.73053 36181 ft 403 kts 262°
2026-04-30 01:14 41.12196 40.65737 36173 ft 403 kts 262°
2026-04-30 01:14 41.11207 40.58840 36171 ft 403 kts 262°
2026-04-30 01:15 41.10337 40.52794 36167 ft 403 kts 262°
2026-04-30 01:15 41.09285 40.45519 36176 ft 404 kts 262°
2026-04-30 01:16 41.08229 40.38252 36177 ft 404 kts 262°
2026-04-30 01:16 41.07163 40.30940 36176 ft 404 kts 261°
2026-04-30 01:17 41.06103 40.23711 36165 ft 402 kts 261°
2026-04-30 01:17 41.05114 40.16997 36176 ft 402 kts 261°